Location: Unspecified
(43.4680°N, 87.1740°E)
Time: 05:25:50
(UTC+00:00)

Meteor 2-4 Rocket - Pass Details

Date: 17 April 2021
Orbit: 798 x 909 km, 81.2° (Epoch: 17 May)

Event Time Altitude Azimuth Distance (km) Brightness Sun altitude
Exits shadow 20:22:36 47° 136° (SE) 1,184 4.3 -28.0°
Maximum altitude 20:23:48 56° 94° (E) 1,076 4.3 -27.9°
Drops below altitude 10° 20:29:35 10° 18° (NNE) 2,593 7.1 -27.2°
Sets 20:32:05 0° 15° (NNE) 3,530 7.9 -26.9°
